Wind_Speed
25 24 25 26 26 26 25 25 26 25 25 25 25 25 23 22 22 22 21 22 24 25 27 28 29 29 29 28 27 25 24 23 22 21 20 19 18 17 16 15 13 11 10
23 25 24 26 27 27 27 27 27 27 27 26 25 25 24 24 23 24 24 23 24 26 27 29 31 31 31 31 30 29 27 26 25 24 23 22 20 19 18 17 15 14 12
24 25 25 25 26 27 26 27 27 27 27 27 27 26 26 25 25 26 26 25 25 27 28 29 31 32 33 34 33 32 31 29 28 26 25 24 23 22 20 19 17 16 14
23 24 24 24 25 26 26 27 28 28 29 28 28 28 28 27 27 27 27 27 26 27 29 30 31 32 34 35 35 34 33 33 31 30 28 27 26 24 23 21 20 18 17
23 24 24 25 25 26 26 27 27 28 29 29 29 29 29 29 29 29 29 29 28 28 30 30 31 32 34 36 37 37 36 35 34 33 32 30 29 27 25 24 22 21 19
23 24 25 25 26 26 26 27 28 28 29 29 30 30 31 30 31 31 31 31 30 30 32 33 32 32 34 37 37 37 38 38 37 36 35 33 31 30 28 26 25 23 22
24 24 25 25 26 26 27 27 27 28 29 29 30 30 31 31 32 32 33 33 33 33 33 33 34 34 34 35 37 37 38 39 40 39 37 36 34 33 31 29 28 26 24
24 24 24 25 25 26 27 27 28 28 29 29 30 30 31 32 33 33 34 34 34 34 34 34 34 34 36 37 37 38 39 40 41 40 39 38 37 35 33 32 30 28 27
24 24 24 25 25 26 27 28 28 29 29 30 30 31 32 33 33 34 34 35 35 36 36 35 35 35 37 38 37 39 40 40 42 42 40 40 39 37 35 34 32 30 29
23 23 23 24 25 26 27 28 28 29 30 30 31 31 32 33 34 34 35 36 36 36 37 37 36 36 37 39 39 39 40 41 42 42 41 42 41 39 37 36 34 32 31
22 22 23 24 25 26 27 28 29 29 30 31 31 32 33 33 34 35 36 37 37 37 38 38 39 39 40 40 40 41 41 41 42 43 43 43 43 42 40 37 36 34 32
23 23 24 25 26 27 27 28 29 30 30 31 32 32 33 34 35 36 37 38 38 39 39 39 39 40 41 41 41 41 41 42 43 44 43 44 44 43 42 39 38 35 34
25 25 26 26 27 28 28 29 30 31 32 32 33 34 35 35 36 37 38 38 39 40 40 40 40 41 42 42 42 41 42 43 43 45 45 44 43 43 42 40 39 37 35
26 27 27 28 28 29 30 31 31 32 33 33 34 35 36 37 37 38 39 40 40 40 41 41 41 42 43 43 43 42 43 43 43 45 45 45 44 42 42 42 40 38 37
28 29 29 30 31 31 31 32 32 33 33 34 35 36 37 37 38 39 39 40 41 41 42 42 43 43 43 43 43 44 44 43 43 44 45 45 45 43 43 43 41 39 37
30 30 31 31 32 33 33 33 33 33 34 34 35 36 36 37 38 39 39 40 41 42 42 43 43 44 44 44 44 44 44 44 45 45 46 45 45 44 43 43 42 39 37
31 32 33 34 34 34 34 34 34 34 35 35 35 36 36 37 38 38 39 40 40 41 42 43 44 43 44 45 45 45 45 45 46 46 46 47 46 45 44 43 43 42 39
33 34 35 36 36 36 36 36 36 36 36 36 37 37 37 37 38 39 39 40 41 41 42 43 45 45 44 45 45 45 46 46 45 46 47 47 46 46 45 44 43 42 40
36 37 37 38 38 38 37 37 37 37 37 37 37 37 37 37 37 38 40 40 41 42 42 43 45 46 45 45 46 46 45 46 46 46 47 47 47 46 46 45 44 42 41
38 39 40 40 40 39 38 38 38 38 37 37 36 36 36 37 37 38 39 40 41 42 43 44 45 47 47 46 46 45 46 47 46 46 47 48 48 47 47 46 45 44 42
41 41 41 41 40 39 38 38 38 37 37 37 37 37 37 37 38 39 39 40 41 42 43 44 45 46 48 48 47 46 46 46 46 46 47 48 49 49 48 47 46 45 43
42 43 42 41 40 40 39 39 38 37 36 36 36 36 37 37 38 39 40 41 42 43 44 44 45 47 48 49 48 47 47 46 46 47 47 47 49 50 49 48 47 45 44
44 43 42 41 40 40 39 39 37 36 35 35 35 35 36 37 37 38 39 40 42 43 44 45 46 47 48 50 50 49 48 47 46 47 48 47 48 49 50 49 48 47 45
44 43 42 41 40 40 39 38 36 35 34 34 34 33 34 35 36 37 38 39 40 42 44 45 46 47 49 50 51 51 50 48 46 45 47 47 48 49 51 51 50 48 47
44 43 42 41 40 39 38 36 34 33 33 33 33 33 32 33 34 35 37 38 39 41 44 46 47 48 49 51 52 52 52 50 48 46 46 46 48 49 51 52 51 49 48
44 43 42 41 39 37 36 35 34 33 32 32 32 32 32 32 33 34 35 37 39 41 43 45 47 48 49 51 53 53 53 52 50 49 47 47 47 48 49 52 52 50 50
Wind_Direction
281 280 276 274 275 276 278 277 275 277 277 275 274 274 273 271 268 264 262 256 247 242 239 235 233 231 228 225 223 221 220 217 216 216 216 216 217 217 218 218 219 218 215
286 282 284 278 275 277 279 277 276 276 277 274 273 273 271 268 263 261 260 257 252 244 241 237 235 232 230 227 225 223 222 221 219 219 219 219 220 221 222 223 223 222 219
288 285 285 282 277 277 278 278 277 276 275 273 271 271 269 265 259 256 256 256 253 247 243 239 236 233 230 228 227 225 224 222 221 221 221 221 222 223 224 224 225 224 223
290 286 285 285 281 279 277 276 276 274 273 272 270 268 266 263 259 255 254 254 253 248 244 243 238 234 231 229 229 228 226 223 222 222 222 223 224 225 226 226 226 225 225
294 290 287 286 283 281 279 277 276 274 272 271 269 266 265 262 259 256 254 253 252 249 245 244 241 237 233 230 230 230 227 225 225 224 224 225 225 226 226 227 227 227 227
293 290 288 286 283 281 279 277 276 274 273 270 268 266 264 263 259 256 254 253 252 250 246 243 242 240 237 234 232 231 229 226 226 226 225 226 227 226 226 226 228 228 229
295 292 289 287 284 282 280 278 277 275 272 270 268 266 264 262 260 256 254 252 251 249 247 245 242 240 238 235 233 232 231 229 227 226 226 227 228 228 227 227 228 229 231
298 295 293 289 286 284 281 279 277 275 273 270 268 265 263 261 259 257 254 252 251 249 247 245 242 240 237 235 233 233 233 232 229 228 227 226 227 229 227 227 228 229 231
300 298 295 292 289 286 284 281 279 276 274 271 268 265 263 261 259 256 254 252 250 248 246 245 243 240 238 236 235 235 234 233 231 228 229 227 227 228 227 227 228 229 231
305 303 300 296 293 291 288 284 281 279 276 273 270 266 263 260 258 256 253 252 250 248 246 245 244 240 238 237 236 235 234 233 231 229 229 228 227 227 227 227 228 230 231
308 306 304 301 298 295 292 288 284 281 279 276 273 269 265 261 258 255 253 252 251 249 247 245 243 241 239 238 237 235 233 232 231 231 230 229 226 227 226 226 227 229 231
309 308 306 304 301 298 294 291 288 284 281 278 275 272 268 263 259 256 253 252 251 249 248 246 242 241 238 237 237 234 232 231 231 231 230 229 228 227 226 226 227 228 231
310 309 308 305 303 300 296 293 290 286 283 280 276 273 270 265 261 257 253 251 250 249 248 246 242 240 238 236 235 232 233 231 230 230 230 228 227 227 226 226 227 228 229
311 310 308 306 303 301 298 295 292 288 284 281 278 274 270 266 262 258 254 251 249 248 247 245 243 241 238 235 234 232 231 231 230 229 229 227 227 227 226 225 227 228 228
312 310 309 308 305 302 300 297 293 290 286 283 280 276 272 267 263 259 255 251 249 246 245 245 243 241 238 235 233 232 231 231 230 229 228 227 226 226 225 225 226 227 227
313 312 311 309 307 304 301 298 295 292 288 284 281 277 273 268 264 260 256 252 249 246 244 243 243 241 239 236 234 232 230 230 230 229 228 226 225 225 225 226 226 226 227
316 314 312 310 308 305 302 299 296 293 290 285 281 277 273 268 265 260 256 252 249 245 243 241 241 241 239 236 234 232 230 229 229 228 227 226 225 224 225 226 226 226 226
317 315 313 311 308 306 303 300 296 293 289 285 281 277 273 269 264 260 256 253 249 246 243 240 240 240 239 237 234 232 231 228 227 226 225 225 225 223 223 225 225 224 225
317 316 314 311 309 307 304 300 297 293 289 285 280 276 273 269 265 261 257 253 250 247 243 240 239 239 239 237 235 232 230 228 226 225 224 224 224 223 223 222 223 223 223
317 316 315 312 310 307 305 301 298 294 290 285 281 277 273 269 265 262 258 255 252 249 245 242 239 238 237 236 235 232 230 228 226 224 223 223 223 223 221 220 222 222 222
318 316 315 313 311 308 305 302 299 295 292 287 282 278 274 269 266 263 260 256 253 249 246 242 239 237 236 235 234 232 230 229 227 225 224 223 223 222 220 220 220 221 221
318 317 316 314 312 309 306 303 299 296 293 289 284 280 275 270 267 264 260 257 253 249 245 242 239 236 235 234 233 230 229 228 227 225 223 222 222 221 220 220 219 218 218
320 318 317 315 313 310 307 304 301 298 295 291 287 282 277 272 268 265 261 256 252 248 244 241 239 236 234 233 232 230 228 226 226 225 224 223 222 219 218 217 216 217 216
321 320 318 316 314 311 309 306 302 299 296 293 290 286 280 275 271 266 261 257 252 248 244 241 238 236 233 232 231 229 227 226 225 223 223 224 221 219 218 216 214 215 214
322 321 319 317 316 314 311 308 304 301 298 295 292 288 283 277 272 267 262 258 254 249 245 241 237 235 233 230 229 227 227 225 223 221 221 221 220 219 218 216 213 213 212
323 321 320 319 317 316 313 310 307 304 301 298 294 289 284 279 274 268 263 259 255 250 244 240 237 234 232 230 228 226 225 224 223 222 221 220 219 218 218 216 214 213 212
Height
5869 5868 5868 5867 5866 5865 5865 5865 5865 5866 5866 5866 5866 5866 5866 5867 5868 5869 5870 5871 5873 5874 5876 5878 5881 5883 5886 5888 5891 5894 5896 5898 5900 5903 5905 5907 5909 5911 5913 5915 5916 5918 5919
5864 5863 5862 5861 5860 5860 5859 5859 5859 5859 5860 5859 5860 5860 5860 5861 5862 5863 5864 5866 5867 5868 5870 5872 5874 5877 5879 5883 5886 5889 5891 5894 5897 5899 5902 5904 5906 5908 5910 5912 5914 5916 5918
5859 5857 5856 5855 5854 5854 5853 5853 5852 5852 5852 5852 5853 5853 5854 5854 5855 5856 5857 5859 5860 5862 5864 5866 5868 5870 5873 5876 5880 5883 5886 5889 5892 5895 5898 5900 5903 5905 5908 5910 5912 5914 5916
5853 5851 5850 5849 5848 5847 5847 5846 5846 5845 5845 5845 5845 5846 5847 5847 5848 5849 5850 5852 5853 5855 5857 5859 5861 5863 5866 5870 5873 5877 5880 5883 5887 5890 5893 5896 5899 5902 5904 5907 5909 5911 5913
5847 5845 5844 5843 5841 5841 5840 5839 5839 5838 5838 5838 5838 5839 5839 5840 5841 5842 5843 5845 5846 5848 5850 5852 5854 5856 5859 5863 5866 5870 5873 5877 5881 5884 5888 5891 5894 5897 5900 5903 5906 5908 5911
5841 5839 5838 5836 5835 5834 5833 5832 5831 5831 5830 5830 5831 5831 5831 5832 5833 5834 5836 5837 5838 5840 5842 5844 5847 5849 5852 5855 5859 5862 5866 5870 5874 5878 5882 5885 5889 5892 5896 5899 5902 5905 5907
5835 5833 5831 5830 5828 5827 5826 5825 5824 5823 5823 5823 5823 5823 5824 5824 5825 5826 5827 5829 5830 5832 5834 5836 5839 5841 5844 5847 5851 5855 5859 5863 5867 5871 5875 5879 5883 5887 5890 5894 5897 5900 5903
5828 5826 5825 5823 5821 5820 5819 5818 5817 5816 5815 5815 5815 5815 5816 5817 5817 5818 5819 5820 5822 5824 5826 5828 5831 5833 5836 5839 5843 5847 5851 5855 5859 5864 5868 5872 5877 5881 5885 5888 5892 5895 5899
5823 5820 5818 5816 5814 5813 5811 5810 5809 5808 5807 5807 5807 5807 5807 5807 5808 5810 5810 5811 5813 5815 5817 5820 5822 5825 5827 5831 5835 5839 5842 5847 5851 5856 5860 5865 5870 5874 5878 5882 5886 5890 5893
5817 5814 5812 5810 5808 5805 5804 5802 5801 5799 5799 5798 5798 5798 5798 5798 5799 5800 5802 5802 5804 5806 5808 5811 5813 5816 5819 5822 5826 5830 5834 5838 5843 5848 5852 5857 5862 5867 5872 5876 5880 5884 5888
5811 5809 5806 5803 5801 5798 5796 5794 5792 5791 5790 5789 5788 5788 5789 5789 5789 5791 5792 5793 5794 5796 5799 5801 5804 5807 5810 5813 5817 5821 5825 5830 5834 5839 5844 5849 5854 5859 5864 5869 5874 5878 5882
5806 5803 5800 5797 5794 5791 5789 5786 5784 5782 5781 5780 5779 5778 5779 5779 5780 5781 5782 5783 5784 5786 5788 5791 5794 5797 5800 5804 5807 5811 5816 5821 5825 5831 5836 5840 5845 5851 5856 5862 5867 5871 5875
5800 5797 5794 5790 5787 5784 5781 5778 5776 5774 5772 5770 5769 5768 5768 5768 5769 5770 5772 5773 5774 5776 5778 5781 5784 5787 5790 5794 5798 5801 5806 5811 5816 5822 5827 5832 5838 5843 5848 5854 5859 5864 5869
5794 5790 5786 5783 5779 5776 5773 5770 5767 5764 5762 5760 5759 5758 5757 5757 5758 5759 5760 5762 5764 5766 5768 5770 5773 5776 5780 5784 5788 5792 5797 5802 5807 5813 5818 5824 5830 5835 5841 5846 5852 5856 5862
5787 5783 5779 5775 5771 5767 5764 5760 5757 5755 5752 5750 5748 5747 5746 5746 5746 5747 5748 5750 5753 5755 5757 5759 5762 5766 5769 5774 5778 5782 5787 5793 5798 5804 5810 5815 5821 5827 5833 5838 5844 5849 5854
5780 5775 5771 5766 5762 5758 5754 5751 5747 5744 5742 5739 5737 5736 5735 5734 5734 5735 5736 5738 5741 5743 5746 5748 5751 5755 5759 5763 5768 5773 5778 5783 5788 5794 5800 5807 5813 5819 5825 5831 5836 5842 5847
5772 5767 5762 5757 5753 5749 5744 5741 5737 5734 5731 5728 5726 5724 5723 5722 5722 5723 5724 5726 5729 5731 5735 5738 5740 5744 5748 5752 5758 5762 5767 5773 5779 5785 5791 5798 5804 5810 5817 5823 5828 5834 5840
5764 5758 5753 5748 5743 5739 5734 5730 5726 5723 5720 5717 5714 5713 5711 5710 5710 5711 5712 5714 5716 5719 5723 5726 5729 5733 5737 5742 5746 5752 5757 5763 5769 5775 5781 5788 5795 5801 5808 5814 5820 5826 5832
5755 5750 5744 5739 5733 5728 5723 5719 5715 5711 5708 5705 5702 5700 5699 5698 5698 5698 5700 5701 5704 5707 5710 5714 5718 5721 5726 5731 5736 5741 5747 5753 5759 5765 5771 5778 5785 5792 5799 5806 5812 5818 5824
5746 5740 5735 5729 5723 5717 5712 5707 5703 5699 5695 5692 5690 5688 5686 5686 5685 5686 5687 5689 5691 5694 5697 5702 5706 5710 5715 5719 5725 5731 5736 5742 5749 5755 5762 5768 5776 5783 5790 5797 5804 5810 5816
5737 5731 5724 5718 5712 5706 5701 5696 5691 5687 5683 5680 5677 5675 5674 5673 5673 5673 5674 5676 5678 5681 5684 5688 5693 5698 5703 5708 5714 5720 5726 5732 5738 5745 5752 5759 5766 5773 5780 5787 5794 5801 5808
5727 5721 5714 5707 5701 5695 5690 5685 5680 5675 5671 5668 5665 5662 5660 5660 5659 5660 5661 5662 5665 5668 5671 5675 5680 5685 5691 5696 5702 5708 5715 5722 5729 5736 5741 5748 5756 5763 5771 5778 5785 5792 5800
5718 5711 5704 5697 5690 5684 5679 5673 5668 5663 5659 5656 5652 5649 5647 5646 5646 5646 5647 5648 5651 5654 5658 5662 5667 5672 5678 5684 5690 5697 5703 5711 5718 5725 5731 5738 5745 5753 5761 5768 5776 5784 5791
5708 5701 5693 5686 5680 5674 5668 5662 5657 5652 5648 5644 5640 5637 5635 5633 5632 5632 5633 5635 5637 5640 5644 5648 5654 5659 5665 5670 5678 5685 5692 5700 5707 5714 5721 5728 5735 5743 5751 5759 5766 5774 5782
5698 5691 5683 5676 5670 5663 5657 5651 5646 5641 5637 5633 5629 5625 5623 5620 5619 5619 5620 5621 5623 5626 5629 5634 5640 5645 5652 5658 5665 5673 5681 5689 5697 5703 5710 5718 5725 5732 5740 5748 5756 5765 5773
5688 5681 5674 5666 5660 5654 5647 5641 5636 5631 5627 5622 5618 5614 5611 5609 5607 5606 5606 5608 5610 5612 5615 5620 5626 5632 5638 5645 5653 5661 5669 5677 5685 5693 5700 5708 5715 5723 5731 5739 5747 5755 5764